Location: Boda
(47.1872°N, 9.5454°E)
Time: 09:42:32
(UTC+00:00)

NPP - Pass Details

Date: 14 May 2021
Orbit: 826 x 827 km, 98.7° (Epoch: 17 June)

Event Time Altitude Azimuth Distance (km) Brightness Sun altitude
Rises 01:17:19 0° 14° (NNE) 3,378 8.3 -18.9°
Reaches altitude 10° 01:19:40 10° 14° (NNE) 2,441 7.2 -18.7°
Maximum altitude 01:25:06 89° 281° (WNW) 834 3.6 -18.2°
Enters shadow 01:27:51 30° 197° (SSW) 1,436 4.4 -18.0°
